sat.trackr.live / text

‹ back to catalog

STARLINK-3122

NORAD 49445 · 2021-104AP

PAYLOAD ACTIVE UNKNOWN

§ Identity

Operator
Country
US
Launch date
2021-11-13
Launch site
AFETR
Launch vehicle
Mass (kg)
RCS (m²)

Purposes: comms

External: N2YO · Heavens-Above · Gunter

§ Orbital elements

Epoch: 2026-05-24T18:37:13.414080Z

Period
95.44 min
Inclination
53.2137°
Eccentricity
0.0000931
Mean motion
15.08840407 rev/d
Perigee alt
539.1 km
Apogee alt
540.4 km
Semi-major
6,917.9 km
B*
6.4880e-5
RAAN
237.9496°
Arg perigee
85.1497°
Mean anomaly
274.9601°
Rev number
25,025

§ Raw data

STARLINK-31221 49445U 21104AP  26144.77584970  .00000745  00000+0  64880-4 0  99932 49445  53.2137 237.9496 0000931  85.1497 274.9601 15.08840407250256

JSON: /api/v1/satellites/49445 · /tle

For live sub-satellite position, see the globe view (requires WebGL).

§ Visibility from observer

Set your observer location to see the next 7 days of passes ≥ 10°. The values pass through the URL so the page stays shareable.

No JS? Fill the form by hand. The geolocation button needs JavaScript.